Wind_Speed
30 30 27 27 25 24 22 22 22 22 25 25 25 27 31 35 36 36 33 33 27 24 25 24 24 18 21 29 25 17 26 27 26 24 22 23 21 19 17 17 18 21 21 22
33 34 33 32 30 29 28 25 25 26 27 30 29 32 34 36 37 36 36 34 35 29 27 26 23 25 22 25 25 23 29 30 31 30 26 25 24 22 21 19 17 17 21 23
35 38 38 36 34 32 32 31 29 29 29 32 33 33 36 37 40 41 41 39 38 37 29 28 24 21 29 32 35 38 37 39 37 37 34 28 26 24 24 23 20 16 19 21
36 39 41 40 37 35 34 34 33 32 31 33 35 35 35 38 41 44 44 42 42 41 38 34 31 24 28 40 41 41 44 44 48 43 43 35 29 25 22 25 23 21 23 22
38 40 41 41 41 38 38 37 36 35 35 37 36 38 39 41 41 45 47 46 44 45 41 39 38 35 35 38 42 44 48 55 55 52 50 43 37 31 26 26 25 24 23 25
40 42 44 44 43 42 41 40 39 37 39 41 42 42 44 44 45 47 49 49 49 49 46 43 42 39 38 41 40 45 37 50 59 59 56 51 44 38 32 29 27 27 28 27
43 43 44 45 45 44 42 41 40 40 40 42 43 44 46 49 50 52 52 50 50 51 50 50 49 44 42 41 39 40 33 40 62 65 60 59 53 43 36 32 29 30 28 28
43 43 45 47 48 46 44 43 43 43 43 46 47 47 50 52 53 55 56 54 53 52 50 53 55 53 46 46 38 38 31 35 59 70 66 62 57 48 41 35 34 31 32 28
45 45 46 47 48 47 45 45 45 46 46 48 50 52 54 55 58 60 59 58 55 52 51 52 53 55 54 51 39 35 27 34 52 73 66 62 62 54 49 43 37 35 33 33
43 45 47 47 48 48 47 47 48 48 49 49 50 52 57 57 61 63 63 62 58 53 51 50 51 52 52 54 43 28 28 31 46 73 70 63 66 61 56 49 43 39 36 34
40 42 44 46 47 51 51 52 53 54 54 53 51 56 63 61 64 65 66 65 62 57 54 53 50 52 51 52 46 29 27 25 41 68 73 66 70 67 59 55 48 44 38 37
42 42 43 46 48 52 56 57 59 59 57 59 58 62 64 66 66 64 64 64 63 61 59 55 50 51 51 51 47 34 25 23 37 55 70 70 70 70 64 59 55 47 43 39
46 47 49 50 54 55 57 62 66 65 65 66 65 66 67 66 65 64 64 65 65 64 60 56 51 51 51 51 46 37 25 24 31 45 70 68 67 72 68 63 57 50 46 44
53 54 56 58 60 61 64 66 69 69 70 69 72 68 71 66 65 64 63 63 64 65 63 58 51 48 49 49 43 36 25 20 28 42 71 66 61 68 70 64 60 53 48 47
61 62 62 63 65 65 66 69 72 72 73 72 71 70 69 67 67 66 64 65 64 64 64 59 52 46 47 46 39 34 24 20 24 41 66 69 62 64 71 69 62 54 51 51
66 66 66 65 68 67 67 71 71 73 74 74 72 70 70 71 68 67 65 65 65 63 61 58 49 44 45 42 37 30 20 20 24 38 62 71 67 62 68 65 59 54 52 51
71 69 67 65 68 69 69 73 73 74 74 74 75 75 74 73 72 70 66 65 65 62 56 54 47 43 42 40 37 27 20 21 25 36 53 68 66 64 62 64 59 54 55 56
73 74 73 69 71 70 73 76 78 78 80 79 79 77 76 75 78 76 68 67 63 61 53 47 43 41 40 38 37 26 21 23 28 37 48 63 66 63 60 61 60 60 60 58
77 76 77 77 77 77 80 82 83 83 85 85 85 83 81 80 81 80 70 66 61 56 49 43 40 40 36 36 33 28 24 26 31 34 47 59 62 61 58 59 64 67 65 64
81 81 82 83 84 83 85 85 88 89 88 89 89 89 88 84 81 75 66 59 53 51 45 38 34 37 36 36 35 33 28 24 26 36 47 56 62 62 63 65 68 69 71 70
87 86 87 88 89 90 91 91 92 92 92 93 90 89 82 77 69 60 55 50 50 46 40 35 31 35 35 34 36 35 32 29 28 30 35 47 58 66 70 72 69 71 71 69
91 90 91 93 94 94 95 95 95 92 91 85 76 68 65 64 58 50 51 46 43 43 36 32 31 33 36 36 36 36 34 33 29 29 33 38 47 60 66 68 68 67 61 55
97 96 96 96 95 95 95 95 90 80 74 71 68 67 62 62 56 50 45 41 40 38 35 30 33 33 37 38 41 38 36 34 37 36 37 41 44 51 51 56 63 59 55 61
97 92 87 84 85 87 84 80 74 71 68 68 64 63 62 58 53 44 37 36 35 34 34 32 34 36 42 44 49 50 47 46 43 40 41 43 45 47 49 49 54 58 62 61
89 86 84 78 79 77 76 72 68 67 67 65 63 62 55 49 42 38 32 29 33 33 33 35 38 41 46 49 50 52 53 50 48 46 46 45 51 50 53 54 58 56 56 56
88 81 76 72 74 73 73 71 67 67 68 64 62 54 47 40 34 31 25 29 35 36 34 38 45 41 45 48 49 46 56 57 52 50 49 49 50 53 56 62 63 60 61 61
Wind_Direction
288 287 289 291 299 306 311 312 315 320 329 333 345 352 357 358 356 354 345 340 342 337 332 326 310 280 259 268 249 254 264 248 239 238 231 221 214 199 195 187 186 183 181 181
283 284 285 287 293 298 303 305 313 314 319 321 332 342 347 350 349 346 346 341 338 337 334 329 317 298 262 271 244 241 253 252 242 235 234 230 220 211 203 202 188 195 189 190
284 281 283 285 288 292 298 302 306 311 315 318 323 333 337 339 343 343 345 343 338 334 330 324 315 287 274 271 267 258 246 249 240 233 231 228 226 214 207 209 211 206 199 191
279 277 279 283 287 290 291 295 300 305 311 316 320 323 325 329 336 340 340 341 337 330 326 324 315 299 282 279 277 264 257 241 240 232 227 222 220 216 208 209 216 212 199 191
279 276 277 279 282 285 288 291 295 301 308 309 312 320 320 322 327 333 335 337 334 328 323 319 315 309 303 297 278 276 263 242 233 231 224 220 211 208 205 196 205 208 203 199
278 272 273 275 279 283 286 291 296 303 306 308 311 314 315 318 323 327 331 332 330 326 321 318 316 312 310 309 298 291 266 238 223 229 224 216 208 205 200 194 192 201 202 202
276 273 272 274 275 280 284 288 294 297 297 299 301 308 313 315 320 323 326 326 326 323 320 317 315 315 314 315 308 300 268 236 218 224 222 214 210 202 198 196 192 190 197 198
273 269 269 271 273 277 281 287 291 293 298 300 304 306 310 312 315 318 319 321 323 321 317 315 316 317 318 318 320 302 270 237 219 216 220 214 209 201 198 196 196 199 193 194
273 272 272 272 274 278 282 287 290 293 296 299 302 304 306 309 312 314 314 317 318 319 315 314 314 317 320 318 326 301 276 233 218 213 216 214 207 203 200 199 198 198 201 193
274 275 278 280 283 284 285 285 288 293 295 294 296 301 302 305 308 309 312 313 314 314 312 313 311 314 317 315 325 303 278 236 219 210 215 211 206 206 200 199 198 199 200 198
280 280 282 284 285 285 287 290 292 293 292 295 298 302 301 304 305 308 309 310 311 312 311 311 310 311 314 312 318 313 289 247 224 212 212 211 208 205 203 202 199 199 200 200
281 283 284 284 285 286 289 291 290 291 295 297 298 298 299 300 303 306 307 307 308 308 308 309 310 309 309 308 312 315 287 259 224 214 211 212 207 205 206 206 204 201 200 204
280 281 282 282 284 285 287 288 290 293 294 294 295 294 296 299 301 303 303 305 304 304 304 305 308 306 305 304 307 308 283 255 223 215 205 211 206 207 206 209 207 207 203 203
279 279 280 281 281 283 284 286 286 289 289 291 292 294 294 297 298 299 300 301 301 300 301 301 302 302 301 300 301 300 280 255 224 211 203 205 204 208 209 211 211 211 208 203
279 279 280 280 281 282 284 285 287 289 289 290 290 293 294 296 297 298 299 299 298 298 297 297 299 299 295 296 296 293 279 241 211 211 201 201 203 208 210 211 212 211 209 206
278 279 280 282 281 282 284 284 286 287 288 290 292 293 295 297 298 299 300 298 297 296 294 294 294 293 291 290 291 285 273 228 195 200 200 201 205 207 210 210 210 212 211 213
278 279 280 282 284 286 286 287 287 288 290 291 293 294 297 299 300 300 303 299 297 295 290 288 287 287 288 286 285 279 258 224 191 194 197 201 205 208 207 210 211 209 210 209
280 282 283 285 286 287 288 288 290 292 293 294 294 297 299 301 300 300 302 299 297 291 286 283 280 280 278 279 278 274 250 223 192 193 198 200 203 205 205 206 207 210 213 213
280 282 284 287 289 290 290 291 292 295 296 296 297 298 299 299 298 298 297 296 290 286 279 276 272 269 269 268 265 263 243 218 189 186 198 199 204 205 206 203 208 214 218 222
280 282 283 284 286 287 289 290 291 293 294 297 298 297 297 296 296 295 294 289 284 284 276 269 261 259 260 257 253 249 239 211 205 187 192 202 204 205 208 212 215 222 224 224
281 281 283 284 285 287 288 290 291 292 295 297 297 297 297 294 292 291 287 282 280 280 271 262 250 249 250 249 244 250 235 229 204 194 192 201 206 208 211 216 221 225 226 225
281 283 284 285 286 286 287 288 291 293 295 296 296 295 294 292 290 287 284 281 276 274 262 251 236 235 239 240 232 237 233 228 211 210 201 203 211 219 223 224 228 224 232 229
283 284 285 286 287 287 288 290 292 293 293 294 293 292 291 289 288 285 281 274 270 264 254 238 225 224 232 239 228 222 224 228 216 216 211 206 208 212 218 226 231 235 229 229
284 283 282 284 285 286 288 289 290 291 291 293 294 296 293 288 285 280 277 270 263 251 241 223 214 204 219 228 227 217 221 226 224 219 223 222 216 215 219 223 230 232 232 233
280 279 281 284 283 286 287 287 289 291 290 292 297 295 288 283 279 278 272 261 249 236 224 208 207 205 222 229 235 223 222 225 227 225 226 223 220 220 221 223 227 230 236 235
275 279 282 283 282 284 287 290 292 291 291 295 297 290 284 277 273 269 259 239 234 222 213 198 202 206 223 231 235 234 223 224 226 228 227 230 230 230 228 227 231 231 233 236
Height
10950 10949 10949 10948 10947 10945 10944 10942 10941 10940 10937 10936 10934 10931 10927 10922 10919 10917 10912 10907 10907 10905 10901 10899 10896 10897 10894 10893 10893 10893 10896 10899 10902 10904 10903 10905 10905 10906 10908 10908 10910 10912 10914 10917
10944 10943 10942 10942 10942 10940 10938 10938 10936 10933 10931 10928 10927 10922 10919 10916 10916 10913 10910 10904 10899 10901 10898 10894 10892 10890 10888 10889 10887 10890 10891 10893 10896 10898 10900 10903 10905 10905 10907 10909 10910 10914 10915 10919
10937 10936 10934 10935 10935 10934 10932 10930 10930 10928 10925 10922 10919 10918 10913 10913 10909 10906 10902 10898 10894 10892 10894 10891 10887 10885 10882 10880 10880 10882 10886 10885 10885 10891 10894 10897 10901 10903 10904 10907 10909 10912 10915 10918
10929 10928 10927 10927 10927 10926 10925 10924 10923 10921 10919 10916 10914 10912 10910 10906 10901 10898 10896 10892 10887 10884 10882 10882 10880 10880 10876 10870 10869 10871 10872 10875 10875 10880 10885 10890 10895 10898 10901 10904 10907 10909 10912 10915
10919 10918 10918 10918 10917 10918 10916 10916 10916 10913 10911 10908 10907 10904 10900 10897 10895 10891 10887 10884 10881 10877 10874 10871 10868 10867 10866 10862 10855 10854 10853 10857 10861 10865 10874 10881 10886 10891 10895 10897 10901 10905 10908 10912
10910 10908 10908 10909 10909 10908 10908 10907 10907 10905 10903 10899 10896 10894 10890 10888 10885 10883 10879 10874 10869 10864 10862 10862 10859 10857 10853 10846 10838 10830 10828 10834 10845 10850 10859 10869 10876 10881 10886 10891 10895 10900 10904 10908
10900 10898 10897 10898 10899 10899 10899 10899 10899 10899 10897 10893 10890 10887 10882 10878 10875 10872 10870 10868 10864 10856 10850 10845 10843 10843 10839 10835 10826 10814 10811 10815 10826 10835 10847 10857 10865 10873 10879 10886 10888 10891 10897 10902
10889 10889 10888 10887 10888 10891 10892 10892 10891 10890 10887 10882 10879 10878 10874 10870 10867 10864 10860 10858 10854 10848 10841 10832 10825 10822 10823 10816 10811 10802 10798 10802 10810 10820 10832 10845 10858 10864 10874 10879 10881 10886 10891 10897
10876 10877 10878 10878 10879 10881 10884 10883 10881 10879 10877 10874 10870 10868 10864 10860 10856 10852 10848 10846 10844 10839 10831 10824 10817 10807 10801 10800 10802 10791 10786 10788 10795 10807 10818 10834 10850 10856 10861 10868 10876 10881 10888 10890
10868 10868 10868 10868 10869 10870 10871 10871 10870 10869 10868 10866 10865 10861 10853 10850 10845 10839 10834 10830 10828 10827 10822 10817 10809 10800 10793 10785 10787 10784 10777 10777 10781 10792 10806 10820 10837 10846 10850 10858 10868 10875 10881 10887
10862 10861 10861 10860 10860 10857 10857 10857 10857 10855 10853 10853 10854 10849 10839 10838 10834 10826 10819 10814 10810 10809 10807 10804 10799 10791 10783 10776 10773 10773 10769 10768 10771 10781 10791 10808 10822 10835 10846 10849 10856 10865 10875 10881
10854 10855 10854 10852 10850 10847 10844 10843 10841 10840 10842 10840 10839 10838 10831 10827 10822 10817 10808 10801 10795 10790 10790 10788 10786 10779 10771 10765 10763 10762 10760 10758 10760 10767 10781 10794 10808 10824 10838 10843 10847 10857 10866 10875
10846 10846 10844 10842 10839 10838 10836 10831 10825 10826 10826 10825 10826 10823 10817 10816 10810 10804 10796 10789 10782 10776 10775 10773 10771 10766 10759 10753 10751 10750 10748 10747 10748 10754 10769 10782 10795 10812 10824 10834 10842 10851 10858 10865
10833 10833 10832 10830 10828 10825 10822 10818 10813 10813 10811 10813 10805 10810 10799 10800 10796 10790 10784 10777 10769 10761 10757 10757 10758 10755 10748 10741 10738 10738 10737 10737 10738 10743 10754 10768 10783 10802 10815 10827 10836 10843 10849 10856
10817 10817 10816 10815 10812 10812 10810 10802 10796 10797 10793 10794 10793 10789 10785 10783 10779 10773 10769 10763 10755 10749 10741 10743 10742 10741 10735 10729 10727 10727 10727 10726 10726 10734 10744 10756 10772 10788 10803 10814 10825 10835 10843 10847
10798 10799 10799 10798 10794 10795 10794 10783 10783 10779 10777 10774 10773 10772 10768 10762 10760 10755 10752 10745 10738 10733 10728 10727 10728 10727 10723 10718 10717 10717 10719 10719 10717 10723 10736 10747 10761 10775 10790 10804 10819 10829 10837 10845
10779 10781 10783 10783 10778 10776 10774 10767 10765 10762 10758 10758 10753 10751 10748 10743 10738 10734 10734 10725 10720 10715 10714 10711 10712 10712 10709 10706 10705 10707 10710 10712 10710 10717 10728 10740 10753 10766 10779 10794 10808 10817 10825 10830
10761 10758 10760 10763 10759 10759 10754 10747 10744 10743 10737 10736 10732 10731 10728 10726 10714 10708 10712 10706 10701 10696 10696 10698 10698 10697 10696 10695 10694 10699 10703 10706 10706 10714 10723 10735 10746 10758 10769 10782 10795 10803 10811 10818
10744 10744 10743 10742 10739 10738 10731 10727 10723 10722 10716 10714 10711 10708 10707 10702 10695 10686 10690 10684 10681 10678 10680 10682 10682 10683 10686 10687 10687 10690 10696 10700 10701 10707 10719 10728 10741 10751 10762 10773 10782 10792 10799 10806
10725 10726 10724 10723 10721 10718 10711 10709 10705 10701 10698 10694 10691 10685 10682 10677 10674 10666 10667 10664 10662 10662 10664 10667 10668 10671 10674 10677 10678 10682 10689 10695 10700 10698 10707 10719 10730 10742 10753 10761 10769 10777 10785 10792
10704 10705 10703 10700 10697 10696 10689 10688 10684 10680 10679 10672 10668 10660 10655 10650 10649 10649 10644 10646 10644 10647 10650 10653 10655 10659 10662 10666 10669 10673 10681 10688 10691 10696 10702 10713 10721 10728 10737 10745 10753 10762 10772 10782
10681 10683 10681 10676 10672 10670 10667 10665 10662 10661 10654 10650 10644 10638 10633 10627 10626 10629 10625 10628 10628 10630 10635 10640 10643 10648 10651 10655 10662 10665 10672 10680 10685 10690 10697 10706 10715 10724 10731 10737 10745 10754 10761 10770
10658 10659 10655 10652 10647 10643 10645 10640 10639 10638 10632 10627 10624 10618 10615 10610 10609 10610 10608 10611 10611 10616 10620 10627 10632 10637 10641 10646 10653 10658 10662 10668 10678 10683 10691 10698 10705 10712 10721 10730 10738 10745 10751 10757
10633 10632 10628 10632 10625 10622 10624 10619 10617 10616 10612 10608 10603 10599 10595 10591 10589 10591 10593 10595 10597 10602 10608 10616 10622 10627 10630 10632 10638 10646 10653 10659 10667 10674 10682 10690 10696 10703 10711 10721 10729 10736 10743 10749
10605 10604 10609 10614 10606 10605 10599 10600 10599 10595 10591 10589 10586 10580 10575 10572 10573 10573 10579 10582 10583 10589 10596 10604 10611 10616 10619 10622 10624 10636 10644 10650 10657 10663 10670 10676 10684 10690 10700 10709 10715 10724 10731 10736
10574 10588 10594 10594 10585 10585 10581 10580 10581 10575 10572 10571 10566 10561 10558 10557 10557 10559 10566 10567 10570 10576 10586 10595 10601 10606 10610 10612 10615 10622 10632 10638 10645 10652 10659 10664 10672 10680 10686 10694 10701 10707 10714 10720